| time (UTC) | temp F | wind direction | speed MPH | gust MPH | rain 1hr in | rain 24hr in | rain mn in | humidity % | barometer mb |
| 20260902011520 | 78 | 69 | 0.0 | 0.0 | 0.00 | 0.03 | 0.03 | 1 | 1016.0 |
| 20260902010028 | 78 | 69 | 0.0 | 0.0 | 0.00 | 0.03 | 0.03 | 1 | 1016.0 |
| 20260902004511 | 79 | 69 | 0.0 | 0.0 | 0.00 | 0.03 | 0.03 | 1 | 1015.8 |
| 20260902003007 | 79 | 69 | 0.0 | 0.0 | 0.00 | 0.03 | 0.03 | 1 | 1015.8 |
| 20260902001503 | 79 | 69 | 0.0 | 0.0 | 0.00 | 0.03 | 0.03 | 1 | 1015.9 |
| 20260902000100 | 80 | 69 | 0.0 | 0.0 | 0.01 | 0.03 | 0.03 | 1 | 1015.8 |
| 20260901234609 | 80 | 69 | 0.0 | 0.0 | 0.01 | 0.03 | 0.03 | 1 | 1015.7 |
| 20260901233149 | 81 | 117 | 0.0 | 0.0 | 0.01 | 0.03 | 0.03 | 1 | 1015.9 |
| 20260901231550 | 81 | 120 | 0.0 | 0.0 | 0.02 | 0.03 | 0.03 | 1 | 1015.7 |
| 20260901230043 | 82 | 110 | 0.0 | 1.0 | 0.02 | 0.02 | 0.02 | 1 | 1015.5 |
| 20260901224537 | 82 | 103 | 0.0 | 0.0 | 0.02 | 0.02 | 0.02 | 1 | 1015.1 |
| 20260901223034 | 83 | 117 | 0.0 | 0.0 | 0.02 | 0.02 | 0.02 | 1 | 1014.8 |
| 20260901221530 | 83 | 117 | 0.0 | 0.0 | 0.01 | 0.01 | 0.01 | 1 | 1015.0 |
| 20260901220030 | 83 | 180 | 0.0 | 0.0 | 0.00 | 0.00 | 0.00 | 1 | 1014.9 |
| 20260901214519 | 83 | 180 | 0.0 | 0.0 | 0.00 | 0.00 | 0.00 | 2 | 1015.0 |
| 20260901213017 | 82 | 62 | 0.0 | 0.0 | 0.00 | 0.00 | 0.00 | 8 | 1015.1 |
| 20260901211513 | 82 | 56 | 0.0 | 0.0 | 0.00 | 0.00 | 0.00 | 5 | 1014.9 |
| 20260901210006 | 82 | 45 | 0.0 | 0.0 | 0.00 | 0.00 | 0.00 | 1 | 1014.5 |
| 20260901204508 | 83 | 23 | 0.0 | 4.0 | 0.00 | 0.00 | 0.00 | 16 | 1014.6 |
| 20260901203058 | 86 | 63 | 1.0 | 5.0 | 0.00 | 0.00 | 0.00 | 52 | 1014.8 |
| 20260901201557 | 90 | 116 | 0.0 | 3.0 | 0.00 | 0.00 | 0.00 | 57 | 1014.2 |
| 20260901200051 | 90 | 67 | 1.0 | 4.0 | 0.00 | 0.00 | 0.00 | 61 | 1014.4 |
| 20260901194553 | 92 | 23 | 0.0 | 2.0 | 0.00 | 0.00 | 0.00 | 59 | 1014.1 |
| 20260901193040 | 93 | 65 | 0.0 | 1.0 | 0.00 | 0.00 | 0.00 | 59 | 1014.3 |
| 20260901191535 | 93 | 162 | 0.0 | 1.0 | 0.00 | 0.00 | 0.00 | 57 | 1014.7 |
| 20260901190030 | 93 | 178 | 0.0 | 2.0 | 0.00 | 0.00 | 0.00 | 58 | 1015.0 |
| 20260901184526 | 93 | 53 | 0.0 | 1.0 | 0.00 | 0.00 | 0.00 | 59 | 1015.2 |
| 20260901183026 | 92 | 20 | 0.0 | 0.0 | 0.00 | 0.00 | 0.00 | 60 | 1015.2 |
| 20260901181525 | 92 | 39 | 0.0 | 1.0 | 0.00 | 0.00 | 0.00 | 60 | 1015.5 |
| 20260901180013 | 92 | 39 | 0.0 | 2.0 | 0.00 | 0.00 | 0.00 | 59 | 1015.7 |
| 20260901174509 | 92 | 33 | 0.0 | 2.0 | 0.00 | 0.00 | 0.00 | 59 | 1015.8 |
| 20260901173004 | 92 | 63 | 0.0 | 0.0 | 0.00 | 0.00 | 0.00 | 57 | 1015.9 |
| 20260901171601 | 90 | 37 | 0.0 | 1.0 | 0.00 | 0.00 | 0.00 | 59 | 1016.1 |
| 20260901170116 | 90 | 58 | 0.0 | 1.0 | 0.00 | 0.00 | 0.00 | 56 | 1016.4 |
| 20260901164552 | 90 | 103 | 0.0 | 1.0 | 0.00 | 0.00 | 0.00 | 56 | 1016.5 |
| 20260901163047 | 90 | 122 | 0.0 | 1.0 | 0.00 | 0.00 | 0.00 | 56 | 1016.7 |
| 20260901161542 | 89 | 44 | 0.0 | 1.0 | 0.00 | 0.00 | 0.00 | 52 | 1016.8 |
| 20260901160046 | 88 | 20 | 0.0 | 3.0 | 0.00 | 0.00 | 0.00 | 45 | 1017.0 |
| 20260901154533 | 89 | 15 | 0.0 | 1.0 | 0.00 | 0.00 | 0.00 | 43 | 1017.0 |
| 20260901153028 | 89 | 105 | 0.0 | 1.0 | 0.00 | 0.00 | 0.00 | 33 | 1017.1 |
| 20260901151524 | 87 | 38 | 0.0 | 1.0 | 0.00 | 0.00 | 0.00 | 30 | 1017.1 |
| 20260901150019 | 89 | 107 | 0.0 | 1.0 | 0.00 | 0.00 | 0.00 | 11 | 1017.0 |
| 20260901144516 | 88 | 109 | 0.0 | 1.0 | 0.00 | 0.00 | 0.00 | 7 | 1017.0 |
| 20260901143011 | 88 | 184 | 0.0 | 1.0 | 0.00 | 0.00 | 0.00 | 1 | 1017.0 |
| 20260901141506 | 87 | 105 | 0.0 | 0.0 | 0.00 | 0.00 | 0.00 | 1 | 1016.9 |
| 20260901140003 | 86 | 117 | 0.0 | 0.0 | 0.00 | 0.00 | 0.00 | 1 | 1016.8 |
| 20260901134557 | 84 | 219 | 0.0 | 1.0 | 0.00 | 0.00 | 0.00 | 1 | 1016.8 |
| 20260901133104 | 83 | 94 | 0.0 | 0.0 | 0.00 | 0.00 | 0.00 | 1 | 1016.6 |
| 20260901131550 | 82 | 63 | 0.0 | 1.0 | 0.00 | 0.00 | 0.00 | 1 | 1016.5 |
| 20260901130044 | 81 | 110 | 0.0 | 1.0 | 0.00 | 0.00 | 0.00 | 1 | 1016.3 |
| 20260901124540 | 80 | 120 | 0.0 | 0.0 | 0.00 | 0.00 | 0.00 | 1 | 1016.3 |
| 20260901123039 | 79 | 86 | 0.0 | 1.0 | 0.00 | 0.00 | 0.00 | 1 | 1016.4 |
| 20260901121531 | 78 | 89 | 0.0 | 0.0 | 0.00 | 0.00 | 0.00 | 1 | 1016.2 |
| 20260901120026 | 77 | 58 | 0.0 | 1.0 | 0.00 | 0.00 | 0.00 | 1 | 1016.1 |
| 20260901114536 | 77 | 101 | 0.0 | 0.0 | 0.00 | 0.00 | 0.00 | 1 | 1016.1 |
| 20260901113022 | 76 | 101 | 0.0 | 0.0 | 0.00 | 0.00 | 0.00 | 1 | 1015.9 |
| 20260901111513 | 0 | 0.0 | 0.0 | 0.00 | 0.00 | 0.00 | 1015.7 | ||
| 20260901110009 | 0 | 0.0 | 0.0 | 0.00 | 0.00 | 0.00 | 1015.6 | ||
| 20260901104505 | 0 | 0.0 | 0.0 | 0.00 | 0.00 | 0.00 | 1015.6 | ||
| 20260901103001 | 0 | 0.0 | 0.0 | 0.00 | 0.00 | 0.00 | 1015.5 | ||
| 20260901101557 | 0 | 0.0 | 0.0 | 0.00 | 0.00 | 0.00 | 1015.5 | ||
| 20260901100054 | 0 | 0.0 | 0.0 | 0.00 | 0.00 | 0.00 | 1015.4 | ||
| 20260901094548 | 0 | 0.0 | 0.0 | 0.00 | 0.00 | 0.00 | 1015.4 | ||
| 20260901093044 | 0 | 0.0 | 0.0 | 0.00 | 0.00 | 0.00 | 1015.4 | ||
| 20260901091539 | 0 | 0.0 | 0.0 | 0.00 | 0.00 | 0.00 | 1015.2 | ||
| 20260901090035 | 0 | 0.0 | 0.0 | 0.00 | 0.00 | 0.00 | 1015.2 | ||
| 20260901084547 | 0 | 0.0 | 0.0 | 0.00 | 0.00 | 0.00 | 1015.1 | ||
| 20260901083032 | 0 | 0.0 | 0.0 | 0.00 | 0.00 | 0.00 | 1015.2 | ||
| 20260901081523 | 0 | 0.0 | 0.0 | 0.00 | 0.00 | 0.00 | 1015.2 | ||
| 20260901080024 | 0 | 0.0 | 0.0 | 0.00 | 0.00 | 0.00 | 1015.2 | ||
| 20260901074518 | 0 | 0.0 | 0.0 | 0.00 | 0.00 | 0.00 | 1015.1 | ||
| 20260901073008 | 0 | 0.0 | 0.0 | 0.00 | 0.00 | 0.00 | 1015.0 | ||
| 20260901071507 | 0 | 0.0 | 0.0 | 0.00 | 0.00 | 0.00 | 1015.2 | ||
| 20260901070100 | 0 | 0.0 | 0.0 | 0.00 | 0.00 | 0.00 | 1015.5 | ||
| 20260901064557 | 0 | 0.0 | 0.0 | 0.00 | 0.00 | 0.00 | 1015.4 | ||
| 20260901063108 | 0 | 0.0 | 0.0 | 0.00 | 0.00 | 0.00 | 1015.6 | ||
| 20260901061549 | 0 | 0.0 | 0.0 | 0.00 | 0.00 | 0.00 | 1015.8 | ||
| 20260901060042 | 0 | 0.0 | 0.0 | 0.00 | 0.00 | 0.00 | 1015.9 | ||
| 20260901054538 | 0 | 0.0 | 0.0 | 0.00 | 0.00 | 0.00 | 1016.2 | ||
| 20260901053043 | 0 | 0.0 | 0.0 | 0.00 | 0.00 | 0.00 | 1016.4 | ||
| 20260901051530 | 0 | 0.0 | 0.0 | 0.00 | 0.00 | 0.00 | 1016.6 | ||
| 20260901050025 | 0 | 0.0 | 0.0 | 0.00 | 0.00 | 0.00 | 1016.8 | ||
| 20260901044528 | 0 | 0.0 | 0.0 | 0.00 | 0.00 | 0.00 | 1016.8 | ||
| 20260901043021 | 0 | 0.0 | 0.0 | 0.00 | 0.00 | 0.00 | 1016.8 | ||
| 20260901041516 | 0 | 0.0 | 0.0 | 0.00 | 0.00 | 0.00 | 1016.9 | ||
| 20260901040008 | 0 | 0.0 | 0.0 | 0.00 | 0.00 | 0.00 | 1017.0 | ||
| 20260901034504 | 0 | 0.0 | 0.0 | 0.00 | 0.00 | 0.00 | 1017.1 | ||
| 20260901033113 | 0 | 0.0 | 0.0 | 0.00 | 0.00 | 0.00 | 1017.1 | ||
| 20260901031554 | 0 | 0.0 | 0.0 | 0.00 | 0.00 | 0.00 | 1017.0 | ||
| 20260901030050 | 0 | 0.0 | 0.0 | 0.00 | 0.00 | 0.00 | 1016.9 | ||
| 20260901024546 | 79 | 105 | 0.0 | 0.0 | 0.00 | 0.00 | 0.00 | 1 | 1016.9 |
| 20260901023049 | 79 | 119 | 0.0 | 0.0 | 0.00 | 0.00 | 0.00 | 1 | 1016.9 |
| 20260901021547 | 79 | 102 | 0.0 | 0.0 | 0.00 | 0.00 | 0.00 | 1 | 1016.8 |
| 20260901020036 | 79 | 131 | 0.0 | 0.0 | 0.00 | 0.00 | 0.00 | 1 | 1016.7 |
| 20260901014528 | 79 | 159 | 0.0 | 0.0 | 0.00 | 0.00 | 0.00 | 1 | 1016.7 |
| 20260901013034 | 79 | 160 | 0.0 | 0.0 | 0.00 | 0.00 | 0.00 | 1 | 1016.5 |